Location: Aalen
(48.8330°N, 10.1000°E)
Time: 09:47:37
(UTC+02:00)

Transit 2A - Pass Details

Date: 02 August 2021
Orbit: 594 x 964 km, 66.7° (Epoch: 24 September)

Event Time Altitude Azimuth Distance (km) Brightness Sun altitude
Rises 08:21:59 0° 234° (SW) 2,851 8.5 22.4°
Reaches altitude 10° 08:24:15 10° 241° (WSW) 1,976 7.7 22.7°
Maximum altitude 08:28:29 44° 314° (NW) 903 6.3 23.4°
Drops below altitude 10° 08:33:05 10° 27° (NNE) 2,146 8.8 24.2°
Sets 08:35:39 0° 34° (NE) 3,127 9.6 24.6°
